Location: Killam
(52.7910°N, 111.8608°W)
Time: 17:30:42
(UTC+00:00)

EO-79 - Visible Passes

Search period start: 14 March 2026 00:00
Search period end: 24 March 2026 00:00
Orbit: 510 x 522 km, 98.1° (Epoch: 14 March)

Date Brightness Start Highest point End Pass type
(mag) Time Alt. Az. Time Alt. Az. Time Alt. Az.
15 Mar ? 12:53:58 10° NE 12:57:01 23° E 13:00:03 10° SSE visible
16 Mar ? 12:39:37 10° NE 12:42:06 17° E 12:44:35 10° SE visible
17 Mar ? 12:25:39 10° ENE 12:27:09 12° E 12:28:38 10° ESE visible
22 Mar ? 12:44:26 10° NE 12:47:03 18° E 12:49:38 10° SE visible
23 Mar ? 12:30:14 10° ENE 12:31:57 13° E 12:33:41 10° ESE visible
